Regional Weather Roundup
Issued by NWS

Home | Current Version | Previous Version | Text Only | Print | Product List | Glossary On
Versions: 1 2 3 4 5 6 7 8 9 10 11 12 13 14 15 16 17 18 19 20 21 22 23 24 25 26 27 28 29 30 31 32 33 34 35 36 37 38 39 40 41 42 43 44 45 46 47 48 49 50
000
ASUS43 KTOP 272308
RWRKS

WEATHER ROUNDUP FOR KANSAS
NATIONAL WEATHER SERVICE GOODLAND KS
600 PM CDT FRI MAR 27 2015

NOTE:  "FAIR" INDICATES FEW OR NO CLOUDS BELOW 12,000 FEET WITH NO
SIGNIFICANT WEATHER AND/OR OBSTRUCTIONS TO VISIBILITY.

KSZ001>006-013>018-027>032-041>047-280000-
NORTHWEST KANSAS

CITY           SKY/WX    TMP DP  RH WIND       PRES   REMARKS
GOODLAND       PTSUNNY   66  35  31 NW12      30.00F
HAYS           SUNNY     55  34  44 S13G21    30.05F
HILL CITY      SUNNY     60  35  39 S9        30.01F
RUSSELL        MOSUNNY   55  31  39 W12G22    30.06F
$$

KSZ061>065-074>080-084>089-280000-
SOUTHWEST KANSAS

CITY           SKY/WX    TMP DP  RH WIND       PRES   REMARKS
DODGE CITY     SUNNY     62  33  33 SW16G23   30.06F
ELKHART          N/A     69  37  30 S5          N/A
GARDEN CITY    SUNNY     63  35  35 SW8       30.03F
GREAT BEND     MOSUNNY   55  34  44 SW8       30.09S
LIBERAL        SUNNY     66  36  32 SW10      30.08F
PRATT          MOSUNNY   55  32  41 SW9G16    30.11F
$$

KSZ066>073-081>083-090>101-280000-
SOUTHEAST KANSAS

CITY           SKY/WX    TMP DP  RH WIND       PRES   REMARKS
CHANUTE        CLOUDY    48  20  32 N6        30.14S
COFFEYVILLE    MOSUNNY   50  24  36 SW5       30.14F
HUTCHINSON     PTSUNNY   51  29  42 SW7       30.13S
MEDICINE LODGE   N/A     55  31  39 S9        30.10F
NEWTON         CLOUDY    46  25  42 W7        30.14S
PARSONS        CLOUDY    50  23  34 W5        30.15F
WICHITA INTL   CLOUDY    50  28  42 W6        30.13F
WICHITA JABRA  CLOUDY    49  28  44 W8        30.13F
WICHITA MCCONL PTSUNNY   50  28  43 W3        30.13F
WINFIELD       CLOUDY    51  26  37 SW3       30.14F
$$

KSZ007>012-019>026-033>040-048>060-102>105-280000-
NORTHEAST KANSAS

CITY           SKY/WX    TMP DP  RH WIND       PRES   REMARKS
CONCORDIA      CLOUDY    43  22  43 CALM      30.12F
EMPORIA        CLOUDY    46  20  35 N3        30.14R
LAWRENCE       CLOUDY    43  18  36 N7        30.18R
MANHATTAN      CLOUDY    45  18  34 NW3       30.15S
MARYSVILLE     CLOUDY    39  21  48 CALM      30.13F
OLATHE IND     CLOUDY    42  18  37 NW7       30.16R
OLATHE EXE     CLOUDY    43  18  36 N6        30.15R
SALINA         CLOUDY    49  25  39 S8        30.12F
TOPEKA BILLARD CLOUDY    44  20  38 N7        30.18R
TOPEKA FORBES  CLOUDY    45  18  34 NW9       30.17R
$$



USA.gov is the U.S. government's official web portal to all federal, state and local government web resources and services.